| time (UTC) | temp F | wind direction | speed knots | gust knots | rain 1hr in | rain 24hr in | rain mn in | humidity % | barometer mb |
| 20260506110016 | 66 | 195 | 17.4 | 40.8 | 0.00 | 0.00 | 0.00 | 69 | 1014.1 |
| 20260506104512 | 65 | 217 | 20.9 | 38.2 | 0.00 | 0.00 | 0.00 | 69 | 1014.0 |
| 20260506103023 | 65 | 207 | 20.0 | 31.3 | 0.00 | 0.00 | 0.00 | 70 | 1013.5 |
| 20260506101507 | 64 | 209 | 26.1 | 36.5 | 0.00 | 0.00 | 0.00 | 71 | 1013.5 |
| 20260506100004 | 64 | 212 | 20.9 | 36.5 | 0.00 | 0.00 | 0.00 | 71 | 1013.2 |
| 20260506094600 | 64 | 242 | 26.9 | 41.7 | 0.00 | 0.00 | 0.00 | 70 | 1013.2 |
| 20260506093056 | 63 | 229 | 24.3 | 37.4 | 0.00 | 0.00 | 0.00 | 69 | 1013.0 |
| 20260506091554 | 64 | 197 | 23.5 | 37.4 | 0.00 | 0.00 | 0.00 | 68 | 1013.0 |
| 20260506090049 | 63 | 203 | 22.6 | 33.0 | 0.00 | 0.00 | 0.00 | 67 | 1012.7 |
| 20260506084546 | 63 | 207 | 20.9 | 32.2 | 0.00 | 0.00 | 0.00 | 65 | 1012.6 |
| 20260506083045 | 64 | 171 | 23.5 | 35.6 | 0.00 | 0.00 | 0.00 | 63 | 1012.5 |
| 20260506081546 | 64 | 227 | 20.0 | 31.3 | 0.00 | 0.00 | 0.00 | 63 | 1012.1 |
| 20260506073037 | 64 | 202 | 22.6 | 34.8 | 0.00 | 0.00 | 0.00 | 60 | 1012.4 |
| 20260506071544 | 64 | 198 | 20.9 | 31.3 | 0.00 | 0.00 | 0.00 | 60 | 1012.0 |
| 20260506061534 | 66 | 157 | 13.0 | 40.0 | 0.00 | 0.00 | 0.00 | 55 | 1012.2 |
| 20260506044603 | 66 | 218 | 22.6 | 30.4 | 0.00 | 0.00 | 0.00 | 55 | 1012.3 |
| 20260506043057 | 66 | 192 | 19.1 | 31.3 | 0.00 | 0.00 | 0.00 | 57 | 1012.4 |
| 20260506041558 | 66 | 190 | 17.4 | 27.8 | 0.00 | 0.00 | 0.00 | 57 | 1012.3 |
| 20260506040058 | 66 | 180 | 20.9 | 33.9 | 0.00 | 0.00 | 0.00 | 59 | 1012.3 |
| 20260506034552 | 66 | 207 | 19.1 | 34.8 | 0.00 | 0.00 | 0.00 | 58 | 1011.8 |
| 20260506033050 | 66 | 195 | 15.6 | 26.1 | 0.00 | 0.00 | 0.00 | 58 | 1011.7 |
| 20260506031557 | 66 | 155 | 14.8 | 29.5 | 0.00 | 0.00 | 0.00 | 57 | 1011.5 |
| 20260506030058 | 67 | 151 | 15.6 | 37.4 | 0.00 | 0.00 | 0.00 | 55 | 1011.4 |
| 20260506024542 | 68 | 205 | 18.2 | 29.5 | 0.00 | 0.00 | 0.00 | 53 | 1011.5 |
| 20260506023042 | 68 | 174 | 20.9 | 35.6 | 0.00 | 0.00 | 0.00 | 52 | 1011.7 |
| 20260506021541 | 69 | 186 | 20.0 | 34.8 | 0.00 | 0.00 | 0.00 | 51 | 1011.6 |
| 20260506020040 | 68 | 224 | 22.6 | 35.6 | 0.00 | 0.00 | 0.00 | 51 | 1011.4 |
| 20260506014538 | 68 | 195 | 20.0 | 36.5 | 0.00 | 0.00 | 0.00 | 51 | 1011.5 |
| 20260506013041 | 68 | 184 | 23.5 | 38.2 | 0.00 | 0.00 | 0.00 | 51 | 1011.5 |
| 20260506011536 | 68 | 171 | 19.1 | 33.0 | 0.00 | 0.00 | 0.00 | 50 | 1011.4 |
| 20260506010035 | 68 | 165 | 21.7 | 35.6 | 0.00 | 0.00 | 0.00 | 49 | 1011.3 |
| 20260506004559 | 67 | 195 | 21.7 | 34.8 | 0.00 | 0.00 | 0.00 | 49 | 1011.2 |
| 20260506003032 | 67 | 174 | 23.5 | 37.4 | 0.00 | 0.00 | 0.00 | 47 | 1011.0 |
| 20260506001531 | 67 | 206 | 24.3 | 36.5 | 0.00 | 0.00 | 0.00 | 46 | 1010.8 |
| 20260506000030 | 67 | 211 | 20.9 | 30.4 | 0.00 | 0.00 | 0.00 | 44 | 1010.5 |
| 20260505234601 | 67 | 206 | 20.9 | 34.8 | 0.00 | 0.00 | 0.00 | 43 | 1010.3 |
| 20260505233031 | 67 | 174 | 21.7 | 33.0 | 0.00 | 0.00 | 0.00 | 43 | 1010.2 |
| 20260505231529 | 68 | 176 | 12.2 | 28.7 | 0.00 | 0.00 | 0.00 | 44 | 1009.8 |
| 20260505230027 | 68 | 206 | 12.2 | 24.3 | 0.00 | 0.00 | 0.00 | 43 | 1009.7 |
| 20260505224530 | 69 | 165 | 11.3 | 20.9 | 0.00 | 0.00 | 0.00 | 44 | 1009.5 |
| 20260505223025 | 70 | 212 | 20.0 | 29.5 | 0.00 | 0.00 | 0.00 | 40 | 1009.7 |
| 20260505221527 | 71 | 177 | 13.0 | 23.5 | 0.00 | 0.00 | 0.00 | 41 | 1009.8 |
| 20260505220024 | 71 | 161 | 18.2 | 33.0 | 0.00 | 0.00 | 0.00 | 40 | 1009.8 |
| 20260505214524 | 72 | 185 | 19.1 | 30.4 | 0.00 | 0.00 | 0.00 | 40 | 1009.6 |
| 20260505213023 | 73 | 187 | 12.2 | 21.7 | 0.00 | 0.00 | 0.00 | 40 | 1009.6 |
| 20260505211522 | 74 | 212 | 19.1 | 25.2 | 0.00 | 0.00 | 0.00 | 38 | 1009.7 |
| 20260505210022 | 74 | 217 | 14.8 | 29.5 | 0.00 | 0.00 | 0.00 | 38 | 1009.8 |
| 20260505204525 | 74 | 200 | 19.1 | 28.7 | 0.00 | 0.00 | 0.00 | 37 | 1009.8 |
| 20260505203023 | 74 | 199 | 19.1 | 29.5 | 0.00 | 0.00 | 0.00 | 38 | 1009.8 |
| 20260505201525 | 74 | 225 | 17.4 | 26.1 | 0.00 | 0.00 | 0.00 | 36 | 1010.0 |
| 20260505200023 | 74 | 178 | 17.4 | 27.8 | 0.00 | 0.00 | 0.00 | 36 | 1009.8 |
| 20260505194517 | 74 | 185 | 12.2 | 33.9 | 0.00 | 0.00 | 0.00 | 38 | 1009.7 |
| 20260505193016 | 74 | 163 | 13.9 | 23.5 | 0.00 | 0.00 | 0.00 | 39 | 1009.7 |
| 20260505191519 | 74 | 194 | 11.3 | 27.8 | 0.00 | 0.00 | 0.00 | 40 | 1009.9 |
| 20260505190015 | 74 | 236 | 14.8 | 28.7 | 0.00 | 0.00 | 0.00 | 40 | 1009.6 |
| 20260505184523 | 74 | 262 | 13.0 | 35.6 | 0.00 | 0.00 | 0.00 | 40 | 1009.8 |
| 20260505183037 | 74 | 244 | 14.8 | 26.1 | 0.00 | 0.00 | 0.00 | 38 | 1009.7 |
| 20260505181513 | 74 | 259 | 14.8 | 26.9 | 0.00 | 0.00 | 0.00 | 40 | 1009.6 |
| 20260505180009 | 73 | 240 | 10.4 | 20.0 | 0.00 | 0.00 | 0.00 | 43 | 1009.7 |
| 20260505174509 | 57 | 273 | 6.1 | 10.4 | 0.00 | 0.00 | 0.00 | 66 | 1009.7 |
| 20260505173017 | 51 | 313 | 3.5 | 8.7 | 0.00 | 0.00 | 0.00 | 71 | 1010.0 |
| 20260505171506 | 50 | 323 | 3.5 | 7.8 | 0.00 | 0.00 | 0.00 | 79 | 1010.2 |
| 20260505170009 | 48 | 322 | 3.5 | 8.7 | 0.00 | 0.00 | 0.00 | 80 | 1010.4 |
| 20260505164505 | 47 | 307 | 5.2 | 7.8 | 0.00 | 0.03 | 0.00 | 79 | 1010.5 |
| 20260505163004 | 48 | 46 | 7.8 | 10.4 | 0.00 | 0.03 | 0.00 | 76 | 1010.4 |
| 20260505161503 | 50 | 48 | 9.6 | 11.3 | 0.00 | 0.03 | 0.00 | 70 | 1010.3 |
| 20260505153059 | 64 | 196 | 12.2 | 22.6 | 0.00 | 0.08 | 0.00 | 55 | 1010.3 |
| 20260505151603 | 63 | 230 | 8.7 | 20.0 | 0.00 | 0.08 | 0.00 | 53 | 1010.5 |
| 20260505124521 | 54 | 200 | 12.2 | 24.3 | 0.00 | 0.13 | 0.00 | 70 | 1010.8 |
| 20260505123016 | 53 | 151 | 7.8 | 23.5 | 0.00 | 0.13 | 0.00 | 70 | 1010.4 |
| 20260505121512 | 53 | 255 | 7.8 | 18.2 | 0.00 | 0.13 | 0.00 | 69 | 1010.3 |
| 20260505120007 | 53 | 232 | 5.2 | 16.5 | 0.00 | 0.13 | 0.00 | 69 | 1009.9 |
| 20260505114501 | 52 | 296 | 5.2 | 16.5 | 0.00 | 0.13 | 0.00 | 69 | 1009.6 |
| 20260505113057 | 51 | 154 | 6.1 | 18.2 | 0.00 | 0.13 | 0.00 | 73 | 1009.5 |
| 20260505111550 | 50 | 205 | 8.7 | 25.2 | 0.00 | 0.13 | 0.00 | 74 | 1009.7 |